Find Starlink 34257

NORAD ID: 65225 Int'l Des: 2025-176 Owner: SPXS Country: US Constellation: starlink operational
LEOCIRCULAR

Current View

Loading 3D Globe...

About Starlink 34257

Description loading...

Upcoming Passes

Passes for default location (London). Set your location on the main map for personalized predictions.

Altitude History

Loading altitude history...

Two-Line Element Set

1 65225U 25176AD 26149.25206418 .00028271 00000-0 84474-3 0 9991
2 65225 53.1575 137.8992 0001249 79.5012 280.6131 15.34399149 45409
Epoch: May 29, 2026 • Age: 19 hours

Current Status

Altitude 467.1 km
Velocity 7.63 km/s
Sub-Earth Point -16.20°S, 136.6°W
Launch Date Aug 14, 2025
Age 0.7 years
Type internet

Technical Details

Classification Payload
Mass 575.00 kg
Dry Mass 530.00 kg
Total Mass 575.00 kg
Length 0.30 m
Diameter 4.10 m
Span 29.00 m
Shape Box + pan
Manufacturer SPXS
Bus Type Starlink V2MO
Phase Status In Orbit
Owner/State SPXS/US

Most Searched